Location: Plainartige
(45.6866°N, 1.7993°E)
Time: 16:47:57
(UTC+00:00)

deb r/b Ablestar - Pass Details

Date: 30 September 2021
Orbit: 843 x 997 km, 67.7° (Epoch: 21 October)

Event Time Altitude Azimuth Distance (km) Brightness Sun altitude
Rises 19:07:57 0° 333° (NNW) 3,412 ? -17.0°
Reaches altitude 10° 19:10:41 10° 343° (NNW) 2,478 ? -17.5°
Maximum altitude 19:15:43 31° 46° (NE) 1,452 ? -18.3°
Enters shadow 19:17:16 27° 74° (ENE) 1,583 ? -18.6°
